This is the latest recevied weather packets stored in our database for station/object K1BWE-1. If no packets are shown the sender has not sent any weather packets the latest 10 day(s).
| Time | Temp. | Humidity | Pressure | Rain* | Wind** | Luminosity | Snow |
|---|---|---|---|---|---|---|---|
| 1777404319 | 26.11° C | 11% | 1017.7 hPa | 0 mm | - | 771 W/m² | - |
| 1777404016 | 26.11° C | 12% | 1017.6 hPa | 0 mm | - | 783 W/m² | - |
| 1777403710 | 25.56° C | 13% | 1017.9 hPa | 0 mm | - | 778 W/m² | - |
| 1777403409 | 26.11° C | 13% | 1017.8 hPa | 0 mm | - | 778 W/m² | - |
| 1777403104 | 25° C | 12% | 1017.7 hPa | 0 mm | - | 764 W/m² | - |
| 1777402800 | 25.56° C | 13% | 1018.1 hPa | 0 mm | - | 746 W/m² | - |
| 1777402496 | 25° C | 12% | 1018.1 hPa | 0 mm | - | 744 W/m² | - |
| 1777402194 | 25° C | 12% | 1018.1 hPa | 0 mm | - | 747 W/m² | - |
| 1777401888 | 25° C | 15% | 1018.2 hPa | 0 mm | - | 742 W/m² | - |
| 1777401582 | 25° C | 14% | 1018.2 hPa | 0 mm | - | 743 W/m² | - |
| 1777401278 | 25.56° C | 15% | 1018.4 hPa | 0 mm | - | 752 W/m² | - |
| 1777400974 | 25.56° C | 14% | 1018.5 hPa | 0 mm | - | 732 W/m² | - |
| 1777400670 | 25° C | 15% | 1018.6 hPa | 0 mm | - | 728 W/m² | - |
| 1777400368 | 24.44° C | 15% | 1018.3 hPa | 0 mm | - | 740 W/m² | - |
| 1777400063 | 24.44° C | 14% | 1018.5 hPa | 0 mm | - | 765 W/m² | - |
| 1777399761 | 23.89° C | 15% | 1018.5 hPa | 0 mm | - | 785 W/m² | - |
| 1777399457 | 24.44° C | 15% | 1018.6 hPa | 0 mm | - | 776 W/m² | - |
| 1777399155 | 23.89° C | 16% | 1018.7 hPa | 0 mm | - | 765 W/m² | - |
| 1777398852 | 23.89° C | 25% | 1018.6 hPa | 0 mm | - | 738 W/m² | - |
| 1777398549 | 23.89° C | 22% | 1018.6 hPa | 0 mm | - | 725 W/m² | - |
| 1777398245 | 23.89° C | 19% | 1018.6 hPa | 0 mm | - | 752 W/m² | - |
| 1777397943 | 23.89° C | 22% | 1018.7 hPa | 0 mm | - | 758 W/m² | - |
| 1777397638 | 23.33° C | 20% | 1018.7 hPa | 0 mm | - | 792 W/m² | - |
| 1777397334 | 23.89° C | 22% | 1018.5 hPa | 0 mm | - | 790 W/m² | - |
| 1777397031 | 23.33° C | 21% | 1018.7 hPa | 0 mm | - | 799 W/m² | - |
* Rain latest hour (hover to see other rain measurements)
** Current wind speed in m/s (hover to see current wind gust speed)